Location: Corralito
(10.2667°N, 66.9500°W)
Time: 04:05:12
(UTC+00:00)

Haruka - Pass Details

Date: 30 November 2023
Orbit: 529 x 21178 km, 31.2° (Epoch: 21 February)

Event Time Altitude Azimuth Distance (km) Brightness Sun altitude
Rises 01:22:15 0° 280° (W) 18,552 10.6 -46.8°
Reaches altitude 10° 02:15:27 10° 266° (W) 23,477 10.8 -58.9°
Maximum altitude 05:56:58 15° 194° (SSW) 7,692 8.0 -63.3°
Drops below altitude 10° 06:07:28 10° 160° (SSE) 5,338 7.5 -61.0°
Sets 06:12:30 0° 136° (SE) 4,935 7.6 -59.9°
